TimeCDT,TemperatureF,Dew PointF,Humidity,Sea Level PressureIn,VisibilityMPH,Wind Direction,Wind SpeedMPH,Gust SpeedMPH,PrecipitationIn,Events,Conditions,WindDirDegrees,DateUTC
12:53 AM,66.9,64.0,90,29.87,10.0,WNW,6.9,-,N/A,,Clear,290,2012-10-02 05:53:00
1:53 AM,66.9,64.0,90,29.87,10.0,WNW,8.1,-,N/A,,Clear,290,2012-10-02 06:53:00
2:53 AM,66.2,64.4,94,29.86,8.0,West,6.9,-,N/A,,Clear,280,2012-10-02 07:53:00
3:53 AM,66.0,63.0,90,29.86,6.0,West,5.8,-,N/A,,Clear,280,2012-10-02 08:53:00
4:53 AM,64.9,63.0,93,29.86,6.0,WNW,4.6,-,N/A,,Clear,290,2012-10-02 09:53:00
5:53 AM,64.9,62.1,90,29.88,6.0,WNW,5.8,-,N/A,,Clear,290,2012-10-02 10:53:00
7:53 AM,64.0,62.1,93,29.90,8.0,WNW,4.6,-,N/A,,Clear,300,2012-10-02 12:53:00
8:53 AM,69.1,62.1,78,29.92,10.0,NNW,10.4,-,N/A,,Partly Cloudy,330,2012-10-02 13:53:00
9:53 AM,72.0,61.0,68,29.94,10.0,NNW,11.5,-,N/A,,Clear,340,2012-10-02 14:53:00
10:53 AM,77.0,60.1,56,29.95,10.0,NNW,11.5,-,N/A,,Clear,330,2012-10-02 15:53:00
11:53 AM,77.0,57.9,52,29.95,10.0,North,15.0,-,N/A,,Partly Cloudy,350,2012-10-02 16:53:00
12:13 PM,75.2,59.0,57,29.96,10.0,West,10.4,-,N/A,Thunderstorm,Scattered Clouds,280,2012-10-02 17:13:00
12:37 PM,71.6,60.8,69,29.95,6.0,WSW,5.8,-,0.01,Rain,Light Rain,250,2012-10-02 17:37:00
12:53 PM,73.0,61.0,66,29.94,10.0,Calm,Calm,-,0.01,,Overcast,0,2012-10-02 17:53:00
2:53 PM,84.0,55.9,38,29.89,10.0,NNW,8.1,-,N/A,,Clear,330,2012-10-02 19:53:00
3:53 PM,84.9,59.0,41,29.88,10.0,NNW,10.4,17.3,N/A,,Partly Cloudy,330,2012-10-02 20:53:00
4:53 PM,84.0,55.9,38,29.88,10.0,NNW,11.5,-,N/A,,Clear,340,2012-10-02 21:53:00
5:53 PM,82.9,57.9,42,29.89,10.0,North,5.8,-,N/A,,Clear,350,2012-10-02 22:53:00
6:53 PM,77.0,62.6,61,29.90,10.0,North,3.5,-,N/A,,Clear,10,2012-10-02 23:53:00
7:53 PM,75.0,62.1,64,29.91,10.0,Calm,Calm,-,N/A,,Clear,0,2012-10-03 00:53:00
8:15 PM,73.4,62.6,69,29.92,10.0,North,-9999.0,-,N/A,,Clear,0,2012-10-03 01:15:00
8:53 PM,73.4,62.6,69,29.94,9.0,NW,3.5,-,N/A,,Clear,320,2012-10-03 01:53:00
9:53 PM,70.0,62.1,76,29.96,10.0,North,4.6,-,N/A,,Clear,350,2012-10-03 02:53:00
10:53 PM,68.0,61.0,78,29.97,10.0,NNW,4.6,-,N/A,,Clear,340,2012-10-03 03:53:00
11:53 PM,68.0,61.0,78,29.97,9.0,NNE,3.5,-,N/A,,Clear,30,2012-10-03 04:53:00